Tracking 30923 objects as of 1-Jul-2025
HD Live streaming from Space Station
objects crossing your sky now

CZ-2C DEB

Track CZ-2C DEB now!
10-day predictions


NORAD ID: 39204
Int'l Code: 2013-035C
Perigee: 576.9 km
Apogee: 652.9 km
Inclination: 98.2 °
Period: 96.8 minutes
Semi major axis: 6985 km
RCS: Unknown
Launch date: July 15, 2013
Source: People's Republic of China (PRC)
Launch site: Jiuquan Satellite Launch Center, China (JSC)

Note: This is SATELLITE DEBRIS
Your satellite tracking list
CZ-3B DEB
Track 1 satellite(s)




NASA's NSSDC Master Catalog

Two Line Element Set (TLE):
1 39204U 13035C   25181.69487993  .00007694  00000-0  84547-3 0  9999
2 39204  98.2373  77.8488 0054392 353.5221   6.5284 14.86855018637230
Source of the keplerian elements: AFSPC